Wind_Speed
41 40 40 40 40 41 41 42 42 41 40 40 41 42 42 42 42 41 41 41 42 42 42 41 40 40 39 39 38 37 37 36 36 36 36 36 37 39
42 41 41 41 40 40 41 42 42 42 41 41 42 42 42 42 41 40 40 40 40 40 40 39 39 38 38 37 37 37 36 36 36 36 36 36 37 37
42 42 42 42 41 42 42 42 42 42 42 41 42 42 42 42 41 39 38 38 38 39 39 38 38 37 36 36 36 36 36 36 36 36 36 36 36 37
43 43 42 42 42 42 43 43 42 42 42 41 41 42 42 42 41 40 39 39 39 39 39 38 37 37 37 36 36 37 37 36 36 36 36 36 37 37
42 42 42 42 42 42 43 42 42 41 41 41 41 41 41 41 41 40 39 39 38 38 39 38 37 37 36 36 37 37 37 37 37 37 37 37 38 38
41 41 41 42 42 42 42 42 42 41 41 41 41 40 40 40 40 40 39 39 39 39 39 38 37 37 36 37 38 38 39 38 38 37 37 37 38 38
40 40 40 41 42 42 42 41 42 42 41 41 41 40 40 39 39 39 39 39 39 39 39 38 38 38 38 39 39 39 39 39 39 38 38 37 37 37
40 40 41 42 42 42 42 41 41 41 41 41 41 40 39 38 39 39 39 39 39 39 38 39 39 39 39 39 39 38 38 39 39 38 37 36 37 37
40 41 41 41 41 41 41 41 41 41 40 40 39 38 38 38 38 38 38 37 37 38 38 38 38 38 39 38 38 37 37 37 37 37 36 36 36 36
40 41 41 41 41 41 40 40 39 39 38 38 37 36 36 36 36 36 36 36 36 37 37 37 37 38 37 37 37 37 37 36 36 36 36 36 36 35
40 40 41 41 40 40 39 38 38 38 37 36 35 35 35 35 36 36 36 35 35 36 36 37 37 37 36 36 36 37 36 36 35 34 34 34 34 34
39 39 40 39 38 38 38 37 37 37 36 35 35 35 35 35 35 35 36 36 36 36 36 36 36 36 35 35 35 35 34 33 33 33 33 33 33 33
37 37 37 37 37 36 36 36 36 36 35 35 35 35 35 35 35 35 35 36 35 35 34 35 35 35 35 34 33 33 32 32 32 32 33 33 33 33
36 35 35 35 36 36 36 36 36 35 34 34 34 35 35 35 35 34 34 34 34 34 34 34 34 33 33 32 31 30 30 30 30 30 31 32 32 32
35 35 34 34 35 35 35 35 34 34 33 34 34 34 34 34 34 34 33 33 33 33 32 32 32 31 31 30 29 28 28 28 29 29 29 29 29 29
33 34 34 34 34 33 33 33 32 32 32 32 32 33 33 32 32 31 31 31 31 30 31 31 30 30 29 29 28 27 27 27 27 27 27 26 27 27
32 33 33 32 32 32 31 31 31 32 32 31 31 31 31 31 30 30 30 29 29 29 29 29 29 29 28 27 27 26 27 27 26 26 25 25 24 25
30 30 30 30 30 30 30 31 31 31 31 31 31 30 30 29 29 29 28 28 27 27 26 25 25 26 26 26 26 26 26 25 25 25 25 24 23 23
28 28 28 27 27 27 28 29 29 30 30 30 29 29 28 28 28 27 26 26 25 24 24 24 24 25 25 25 24 25 24 24 24 24 24 23 22 21
26 26 26 26 26 26 26 27 27 27 27 26 26 26 26 26 26 25 25 24 24 23 23 23 24 24 24 23 23 23 24 24 23 23 22 22 21 21
25 25 26 26 26 26 26 26 26 25 25 25 25 25 25 25 24 24 24 23 23 22 22 23 23 23 23 23 23 23 23 24 23 22 22 21 20 19
25 25 25 25 25 25 25 25 24 24 24 24 24 23 23 23 23 23 22 22 22 22 22 22 22 22 22 23 23 23 23 22 22 21 21 20 19 18
24 24 24 24 24 25 24 24 23 23 23 23 23 22 22 22 22 21 21 21 21 21 21 21 21 21 22 22 22 22 21 21 20 20 20 19 18 17
Wind_Direction
269 271 272 274 275 278 280 281 282 282 281 280 281 282 283 284 284 283 283 284 284 284 285 286 286 287 287 287 286 286 285 285 284 283 282 281 280 278
269 271 272 274 275 278 280 281 282 281 281 280 281 282 282 283 283 283 284 284 285 285 285 285 285 285 286 286 286 286 285 285 284 282 281 281 281 281
270 271 273 274 275 277 280 282 282 281 281 281 281 281 282 282 281 281 282 283 284 284 284 285 284 284 285 286 286 286 285 285 284 283 282 282 282 281
272 273 275 275 276 278 280 282 281 281 281 281 281 281 281 281 280 280 281 282 283 284 284 284 284 285 286 287 287 286 286 286 285 283 282 281 282 282
273 274 275 276 277 279 281 281 281 281 282 282 281 281 282 282 280 280 281 282 283 284 283 283 284 285 286 286 288 288 287 286 285 283 283 281 281 281
273 274 275 276 278 280 281 281 281 281 281 281 281 281 282 282 282 282 282 283 284 283 283 283 283 284 285 286 287 287 286 285 284 283 282 281 280 280
272 273 274 277 278 279 281 281 281 281 280 280 280 281 282 282 282 282 283 283 283 283 282 282 283 284 285 286 285 285 285 284 284 282 281 281 281 281
272 273 275 277 278 279 280 281 281 280 280 280 280 280 282 281 281 282 283 282 282 282 282 282 283 284 285 285 284 284 284 284 284 283 281 281 281 280
272 273 274 275 277 278 280 280 280 280 280 279 280 280 281 281 282 283 283 282 281 281 281 281 282 283 284 284 284 284 284 284 284 283 282 281 280 281
274 274 274 275 277 278 278 279 280 280 280 279 280 280 281 282 283 283 282 282 281 281 281 282 282 284 284 284 285 285 285 285 284 284 284 283 282 283
274 274 275 275 276 277 278 278 278 278 277 278 279 280 281 282 283 283 282 282 281 281 281 283 283 284 285 285 285 286 285 285 285 285 285 285 284 284
275 275 275 275 275 276 277 276 276 276 276 277 278 279 281 283 283 284 283 282 281 281 281 283 284 284 285 285 286 286 286 285 285 286 286 285 285 285
274 274 273 274 274 275 275 275 275 275 275 275 277 279 280 282 283 283 283 283 283 283 283 283 284 285 286 285 285 287 287 286 286 287 287 286 287 286
273 272 272 273 274 275 275 275 275 276 275 276 277 278 280 282 283 282 283 283 283 284 285 285 284 285 286 287 286 287 287 287 287 288 288 287 286 285
271 270 271 272 274 275 276 275 275 275 276 277 277 278 280 281 282 282 282 283 283 284 285 285 285 286 288 288 288 288 288 289 289 289 288 287 286 284
271 271 272 273 274 275 275 274 274 274 275 277 278 279 280 280 281 281 281 283 283 284 285 285 286 287 289 289 290 290 290 291 291 291 290 289 288 286
272 271 271 272 273 274 274 274 274 274 276 277 279 280 280 280 280 281 281 283 284 285 286 286 286 288 289 290 290 291 291 292 293 293 292 291 289 287
274 273 272 272 273 274 274 275 276 277 278 279 279 279 279 279 280 281 282 283 285 285 286 286 287 289 290 292 291 292 292 293 293 294 293 292 290 289
274 274 274 274 275 275 276 276 277 278 278 279 279 278 277 278 279 280 281 282 283 285 286 287 288 289 289 291 292 292 293 293 294 295 295 293 292 290
274 275 275 274 276 278 278 277 278 279 280 279 279 278 277 277 279 278 279 280 282 284 287 288 289 289 291 293 294 295 295 294 293 295 296 295 293 292
275 275 276 277 277 279 280 278 278 279 280 279 279 278 277 277 278 277 278 279 281 284 287 288 289 290 292 294 296 296 295 294 293 294 295 294 295 293
273 275 277 278 277 278 279 278 278 279 280 280 279 278 277 277 276 277 278 280 282 284 286 288 290 291 293 295 297 298 297 296 295 294 294 293 294 294
272 274 275 276 276 278 279 279 279 280 281 280 278 276 276 275 276 278 280 280 281 284 286 288 289 291 294 297 298 298 298 297 296 295 294 293 294 296
Height
5684 5684 5684 5684 5683 5682 5681 5680 5680 5679 5679 5677 5674 5672 5670 5669 5667 5665 5663 5661 5658 5656 5655 5652 5650 5647 5645 5643 5641 5639 5637 5635 5633 5632 5631 5630 5628 5627
5674 5674 5674 5673 5673 5672 5671 5670 5668 5667 5667 5666 5664 5662 5660 5658 5656 5654 5652 5650 5648 5646 5644 5642 5639 5637 5635 5633 5630 5629 5627 5625 5623 5622 5621 5619 5617 5616
5663 5663 5663 5662 5662 5661 5660 5659 5658 5656 5656 5655 5653 5651 5649 5647 5645 5644 5642 5640 5638 5636 5633 5631 5628 5626 5625 5623 5620 5618 5617 5615 5613 5612 5610 5609 5607 5606
5652 5652 5651 5651 5651 5650 5649 5648 5647 5645 5644 5643 5642 5640 5638 5636 5634 5633 5631 5630 5628 5625 5623 5620 5618 5616 5614 5612 5610 5609 5607 5605 5603 5601 5600 5598 5597 5595
5641 5641 5640 5640 5639 5639 5638 5637 5635 5634 5633 5632 5631 5629 5627 5625 5624 5622 5620 5619 5617 5614 5612 5610 5608 5606 5604 5602 5600 5598 5596 5595 5593 5591 5589 5588 5586 5584
5630 5629 5629 5629 5628 5627 5626 5625 5624 5623 5621 5620 5619 5618 5616 5614 5613 5611 5609 5608 5606 5604 5601 5600 5598 5596 5594 5592 5591 5588 5586 5584 5582 5580 5578 5577 5575 5574
5618 5618 5618 5617 5617 5616 5615 5614 5612 5611 5610 5609 5608 5606 5605 5603 5602 5600 5598 5596 5595 5593 5591 5589 5587 5586 5584 5582 5580 5577 5575 5573 5571 5569 5568 5566 5564 5563
5607 5607 5607 5606 5605 5604 5603 5602 5601 5600 5599 5597 5596 5595 5594 5592 5591 5589 5587 5586 5584 5582 5579 5578 5576 5575 5573 5571 5569 5567 5564 5562 5560 5559 5557 5555 5554 5552
5596 5595 5595 5594 5593 5593 5592 5591 5589 5588 5587 5586 5585 5584 5583 5581 5580 5578 5576 5574 5572 5571 5569 5568 5566 5564 5562 5560 5558 5556 5553 5551 5549 5548 5546 5545 5543 5542
5584 5584 5583 5582 5582 5581 5580 5579 5578 5577 5576 5575 5574 5573 5572 5570 5569 5567 5565 5563 5562 5560 5558 5557 5556 5554 5551 5549 5547 5545 5543 5541 5539 5537 5536 5534 5533 5531
5573 5572 5571 5571 5570 5569 5569 5568 5567 5566 5565 5564 5563 5562 5561 5560 5558 5556 5554 5553 5552 5550 5548 5547 5545 5543 5541 5539 5537 5535 5533 5531 5529 5527 5525 5524 5523 5521
5561 5561 5560 5559 5559 5558 5557 5557 5556 5556 5555 5554 5553 5552 5551 5549 5548 5546 5544 5542 5541 5540 5539 5536 5534 5532 5532 5530 5527 5525 5523 5521 5519 5517 5515 5514 5512 5511
5550 5550 5549 5549 5548 5548 5547 5547 5546 5545 5545 5544 5543 5542 5541 5539 5538 5536 5534 5532 5530 5529 5528 5526 5524 5522 5520 5520 5518 5516 5513 5511 5509 5507 5505 5504 5502 5501
5539 5539 5539 5539 5538 5537 5537 5536 5535 5535 5534 5534 5533 5532 5531 5529 5527 5525 5523 5522 5520 5519 5518 5516 5514 5512 5510 5509 5508 5507 5504 5502 5500 5498 5496 5494 5492 5490
5528 5529 5529 5528 5528 5527 5526 5526 5525 5525 5524 5523 5522 5522 5520 5519 5517 5516 5514 5512 5511 5509 5508 5506 5504 5503 5501 5499 5498 5497 5495 5494 5491 5489 5487 5485 5483 5481
5518 5518 5518 5518 5518 5517 5517 5516 5515 5515 5514 5513 5512 5511 5510 5509 5507 5506 5504 5503 5502 5501 5499 5497 5495 5494 5492 5491 5489 5488 5486 5485 5483 5480 5478 5476 5474 5472
5508 5508 5509 5508 5508 5508 5507 5506 5506 5505 5504 5503 5502 5501 5500 5499 5498 5497 5495 5494 5493 5492 5491 5489 5487 5485 5484 5483 5481 5480 5478 5476 5474 5472 5470 5468 5466 5464
5499 5499 5499 5499 5499 5498 5498 5497 5496 5495 5494 5493 5492 5491 5491 5490 5489 5488 5487 5486 5485 5483 5482 5481 5479 5478 5477 5475 5474 5472 5470 5468 5466 5464 5462 5460 5459 5457
5490 5490 5490 5490 5490 5489 5489 5488 5487 5486 5485 5484 5483 5482 5482 5481 5481 5480 5479 5478 5477 5476 5475 5473 5472 5471 5470 5469 5467 5464 5462 5460 5458 5456 5454 5452 5451 5450
5482 5482 5482 5482 5481 5481 5480 5479 5479 5478 5477 5475 5475 5474 5474 5473 5473 5472 5471 5470 5469 5468 5467 5466 5465 5463 5462 5461 5459 5457 5454 5452 5451 5449 5448 5445 5444 5442
5474 5474 5474 5474 5473 5473 5472 5471 5471 5470 5469 5468 5467 5467 5466 5466 5465 5465 5464 5463 5462 5462 5461 5460 5458 5456 5455 5453 5452 5450 5448 5445 5444 5442 5441 5439 5438 5436
5466 5466 5466 5466 5465 5465 5464 5464 5463 5462 5462 5461 5460 5460 5459 5459 5458 5458 5457 5457 5456 5455 5454 5453 5452 5450 5449 5447 5445 5444 5442 5439 5437 5435 5434 5432 5430 5429
5458 5458 5458 5458 5458 5457 5457 5456 5456 5455 5455 5454 5453 5453 5452 5452 5451 5451 5450 5450 5449 5449 5448 5447 5446 5444 5442 5441 5439 5437 5435 5433 5431 5430 5428 5426 5425 5423